Temp
62 62 62 62 62 63 63 63 63 63 63 62 61 61 62 62 62 67 76 84 84 80 82 86 85 84 85 81 77 77 66 59 60 60 61 64 65 73 78 77 77 77 77 79 80
61 61 61 61 62 62 62 62 63 63 62 61 61 61 62 62 65 72 83 80 80 82 86 85 81 82 80 78 79 75 66 64 71 65 62 65 66 72 73 75 72 72 76 78 78
60 60 60 60 61 60 62 62 62 62 62 62 62 61 62 63 71 82 81 80 80 83 88 87 86 83 77 78 76 73 65 69 70 69 67 66 66 74 73 72 75 73 74 76 77
60 60 61 60 61 61 61 61 61 61 61 61 62 62 62 64 70 83 80 80 81 86 87 85 83 78 76 74 77 70 73 72 71 70 68 64 69 69 74 75 81 79 78 77 76
61 60 60 60 61 61 61 61 60 61 61 62 62 62 64 73 79 82 80 81 84 85 83 82 81 79 74 75 76 73 71 73 73 72 70 71 69 73 75 79 80 79 77 77 78
60 60 60 60 60 61 61 61 60 60 61 62 62 63 68 74 83 84 83 82 85 84 83 84 83 82 77 75 74 75 73 73 74 72 71 68 68 71 71 78 76 77 77 78 78
60 60 60 60 60 60 60 59 58 60 60 62 63 66 72 79 85 84 84 84 83 85 83 85 86 82 80 73 78 77 69 72 71 72 69 69 62 63 74 74 75 75 77 78 78
60 60 60 60 60 59 58 58 59 60 61 62 64 67 76 84 85 83 85 83 83 85 85 87 87 82 79 80 76 71 69 62 69 71 70 70 62 66 69 71 74 75 76 77 78
59 59 59 59 59 58 57 58 62 63 63 64 67 71 77 80 82 86 87 85 84 84 85 88 85 78 78 73 69 68 63 62 63 71 70 69 64 69 69 68 71 74 76 77 77
59 59 59 59 58 57 56 58 64 65 67 68 71 72 82 81 86 84 85 87 84 83 82 82 80 75 75 73 67 66 65 63 64 68 69 66 66 69 71 67 70 74 77 77 77
59 58 58 58 57 56 60 67 75 75 71 77 77 77 81 86 89 86 86 85 84 82 75 75 75 70 75 74 71 70 67 65 67 69 67 66 65 67 69 71 69 67 76 77 79
59 58 58 57 56 56 61 78 76 77 71 76 75 77 82 85 81 84 89 81 78 73 74 74 70 77 75 74 71 72 68 65 66 69 69 66 66 68 65 71 72 67 71 76 78
58 58 57 57 56 64 69 76 76 78 71 76 78 78 81 85 80 82 87 81 76 71 73 71 74 75 75 73 71 73 69 65 66 67 69 66 63 64 68 69 71 68 70 77 77
58 58 57 54 65 66 75 76 75 75 69 73 77 82 82 84 78 86 88 83 76 73 71 73 76 73 73 73 74 70 73 71 67 66 63 67 60 62 67 67 68 73 70 76 77
58 57 55 54 61 71 75 72 75 76 56 75 78 88 82 81 82 81 85 83 75 74 73 73 72 71 71 74 75 70 73 71 69 67 65 63 62 65 65 64 68 71 74 77 80
58 57 55 57 58 70 70 72 77 67 54 72 79 77 77 79 79 80 81 85 82 75 74 75 79 78 78 73 77 75 71 69 68 65 62 61 63 67 66 68 71 73 75 76 79
56 55 54 61 73 67 70 78 66 57 71 70 73 76 76 74 75 77 76 74 72 67 68 72 75 78 79 72 74 73 71 62 59 59 59 62 62 69 72 73 73 74 76 78 79
54 53 56 60 64 66 75 73 55 64 66 74 73 73 72 74 74 75 73 72 73 72 70 68 64 75 79 77 73 71 71 65 52 55 61 61 60 70 73 76 75 73 76 78 80
53 63 62 67 63 64 73 61 62 65 71 70 71 68 69 74 74 73 73 72 75 76 69 67 67 76 77 78 78 69 66 72 63 59 60 63 66 73 73 73 75 75 75 76 78
57 60 67 66 65 71 68 55 65 69 73 72 66 69 67 70 70 71 69 76 76 76 77 72 66 73 74 78 75 75 73 66 67 54 53 60 59 66 69 71 74 76 76 75 77
62 64 68 66 68 69 61 62 66 72 73 71 68 67 68 69 71 69 72 75 76 73 77 74 71 70 74 71 71 69 69 64 67 63 59 56 64 73 72 72 72 74 75 75 75
60 60 70 68 65 58 61 64 59 72 74 73 73 71 68 69 69 69 72 74 78 78 73 72 74 68 68 73 72 72 69 71 66 56 59 62 66 74 72 73 72 73 75 76 73
56 56 69 70 60 61 62 65 69 71 71 71 70 72 72 70 65 70 71 75 76 77 75 73 68 63 64 72 72 70 67 68 67 68 59 61 67 70 71 72 73 74 75 74 73
58 57 65 64 61 60 59 62 64 71 71 72 71 72 70 69 68 69 71 74 76 74 67 74 68 68 64 66 69 66 66 67 70 65 64 66 69 72 71 71 71 72 73 74 74
59 59 58 58 59 58 58 60 62 64 70 69 68 69 70 67 66 66 70 72 73 69 70 76 67 66 66 67 68 68 68 67 67 68 65 70 66 76 73 74 72 72 72 73 73
57 58 60 58 56 56 54 58 60 63 64 67 66 67 68 64 70 66 72 71 73 72 71 69 62 65 64 66 67 66 69 69 68 66 67 67 67 73 71 68 69 71 72 73 74
59 60 58 53 57 56 57 59 60 62 66 68 66 65 65 68 74 75 78 75 75 74 69 69 64 63 60 63 65 61 68 69 69 69 69 65 72 69 70 68 69 69 71 71 73
MSLP
1017.03 1016.71 1016.37 1016.06 1015.71 1015.37 1015.22 1015.03 1014.79 1014.59 1014.39 1014.35 1014.24 1014.11 1013.98 1013.68 1013.07 1012.68 1011.22 1009.79 1009.75 1009.76 1009.94 1009.93 1009.98 1009.91 1009.81 1009.84 1010.30 1010.66 1011.21 1012.14 1012.71 1013.13 1013.48 1013.67 1013.31 1012.93 1012.40 1012.28 1012.63 1012.93 1013.07 1013.57 1014.68
1017.17 1016.83 1016.44 1016.12 1015.76 1015.32 1015.03 1014.87 1014.67 1014.42 1014.24 1014.16 1014.11 1014.01 1013.80 1013.63 1012.98 1011.50 1009.40 1009.47 1009.67 1009.72 1009.68 1009.59 1009.73 1009.78 1009.72 1009.89 1010.12 1010.38 1011.09 1011.70 1012.19 1012.76 1013.23 1013.74 1013.62 1012.97 1012.60 1012.49 1012.99 1013.47 1013.94 1014.34 1014.92
1017.31 1016.92 1016.54 1016.15 1015.77 1015.39 1014.94 1014.69 1014.48 1014.32 1014.13 1013.92 1013.86 1013.82 1013.64 1013.44 1012.23 1009.85 1009.09 1009.41 1009.62 1009.72 1009.59 1009.63 1009.58 1009.58 1009.56 1009.99 1010.17 1010.53 1011.08 1011.68 1012.36 1012.69 1013.19 1013.61 1013.45 1013.16 1012.67 1012.42 1012.68 1013.20 1013.88 1014.52 1014.94
1017.36 1016.94 1016.51 1016.10 1015.59 1015.19 1014.84 1014.55 1014.35 1014.14 1013.95 1013.81 1013.66 1013.53 1013.40 1013.07 1011.34 1009.48 1009.16 1009.43 1009.71 1009.75 1009.68 1009.59 1009.53 1009.29 1009.38 1009.63 1010.11 1010.45 1011.27 1011.73 1012.47 1013.00 1013.35 1013.38 1013.49 1013.23 1012.91 1012.59 1012.48 1013.06 1013.99 1014.58 1014.97
1017.32 1016.87 1016.39 1015.92 1015.45 1014.98 1014.56 1014.37 1014.18 1013.94 1013.76 1013.60 1013.44 1013.28 1013.06 1011.93 1010.15 1009.45 1009.38 1009.57 1009.84 1009.85 1009.66 1009.43 1009.29 1009.24 1009.26 1009.75 1010.16 1010.55 1011.50 1012.03 1012.71 1013.20 1013.55 1013.66 1013.33 1012.95 1012.91 1012.84 1012.92 1013.38 1014.09 1014.54 1015.01
1017.20 1016.78 1016.27 1015.75 1015.26 1014.76 1014.32 1014.03 1013.87 1013.67 1013.50 1013.43 1013.29 1013.15 1012.47 1010.77 1009.62 1009.55 1009.53 1009.85 1009.76 1009.86 1009.75 1009.56 1009.29 1009.39 1009.54 1009.98 1010.28 1010.94 1011.49 1012.21 1012.70 1013.19 1013.62 1013.72 1013.56 1013.32 1013.55 1013.34 1013.49 1013.67 1013.98 1014.53 1015.00
1017.10 1016.57 1016.09 1015.59 1015.04 1014.49 1014.08 1013.78 1013.51 1013.31 1013.26 1013.20 1013.13 1012.88 1011.70 1010.11 1009.40 1009.73 1009.83 1009.80 1009.91 1009.87 1009.66 1009.70 1009.58 1009.56 1009.69 1010.16 1010.79 1010.96 1011.56 1012.11 1012.64 1013.03 1013.39 1013.72 1013.66 1013.39 1013.53 1013.75 1013.73 1013.89 1014.25 1014.57 1014.88
1017.00 1016.42 1015.87 1015.35 1014.77 1014.24 1013.82 1013.36 1012.94 1012.82 1012.94 1013.02 1012.97 1012.53 1010.45 1009.35 1009.49 1009.78 1009.75 1009.89 1010.09 1010.14 1009.97 1009.85 1009.78 1009.70 1009.80 1010.33 1010.78 1011.01 1011.61 1011.83 1012.45 1012.89 1013.32 1013.47 1013.47 1013.80 1014.09 1014.20 1013.99 1014.09 1014.22 1014.47 1014.71
1016.87 1016.23 1015.65 1015.08 1014.48 1014.03 1013.60 1013.06 1012.48 1012.49 1012.67 1012.81 1012.71 1011.81 1009.71 1009.49 1009.30 1009.09 1009.25 1009.29 1009.76 1009.97 1009.96 1009.84 1009.71 1009.83 1010.13 1009.90 1010.30 1010.92 1011.03 1011.68 1012.36 1012.66 1012.95 1013.24 1013.19 1013.49 1014.03 1014.25 1014.17 1014.27 1014.16 1014.19 1014.49
1016.71 1016.08 1015.45 1014.83 1014.16 1013.78 1013.31 1013.01 1012.62 1012.50 1012.70 1012.61 1012.07 1011.41 1009.28 1008.76 1008.45 1008.91 1009.23 1009.16 1009.23 1009.43 1009.58 1009.64 1009.66 1009.58 1009.68 1009.43 1009.18 1009.99 1010.68 1011.41 1011.62 1012.26 1012.73 1012.88 1013.13 1013.48 1013.91 1014.25 1014.10 1014.15 1014.11 1014.08 1014.19
1016.52 1015.89 1015.19 1014.55 1013.86 1013.50 1013.03 1012.79 1012.71 1012.28 1011.75 1010.65 1010.35 1009.60 1008.66 1008.28 1008.17 1008.43 1008.77 1008.93 1009.05 1009.12 1009.12 1009.66 1009.28 1008.97 1008.81 1009.25 1009.59 1009.87 1010.43 1010.82 1011.33 1011.97 1012.36 1012.60 1012.89 1013.16 1013.56 1013.92 1014.02 1014.28 1013.86 1013.84 1013.69
1016.38 1015.70 1014.92 1014.25 1013.64 1013.26 1013.03 1012.01 1012.09 1011.99 1010.92 1009.64 1009.44 1009.10 1008.51 1008.13 1007.91 1008.14 1008.41 1008.52 1008.72 1008.91 1009.30 1009.40 1008.92 1008.82 1009.11 1009.18 1009.39 1009.51 1009.90 1010.48 1011.27 1011.79 1012.06 1012.36 1012.37 1012.77 1013.51 1013.27 1013.44 1013.80 1013.93 1013.65 1013.66
1016.28 1015.61 1014.83 1013.88 1013.22 1012.94 1012.60 1011.83 1011.71 1011.50 1010.84 1009.01 1008.46 1008.01 1007.78 1007.87 1007.59 1007.67 1008.00 1008.29 1008.55 1008.84 1008.87 1008.68 1008.65 1008.69 1008.72 1008.72 1008.84 1008.98 1009.49 1010.15 1010.58 1011.40 1011.78 1011.92 1011.90 1012.45 1012.94 1013.20 1013.48 1013.60 1013.38 1013.31 1013.38
1016.21 1015.59 1014.94 1013.90 1013.35 1013.14 1012.07 1011.57 1011.57 1011.33 1010.15 1008.47 1007.62 1007.04 1007.38 1007.32 1007.55 1007.57 1007.74 1007.98 1008.40 1008.47 1008.89 1008.65 1008.35 1008.45 1008.32 1008.16 1008.51 1008.43 1009.23 1009.74 1010.25 1010.74 1010.84 1011.46 1011.22 1011.76 1012.17 1012.48 1013.02 1012.98 1012.98 1012.72 1012.81
1015.98 1015.51 1015.12 1014.88 1014.12 1012.96 1012.04 1011.74 1011.42 1011.10 1009.28 1007.81 1006.93 1006.76 1007.04 1007.15 1007.22 1007.58 1007.81 1007.83 1007.90 1008.18 1008.67 1007.78 1007.76 1007.96 1007.87 1007.85 1008.44 1008.76 1009.24 1009.48 1009.94 1010.27 1010.64 1010.96 1010.97 1011.04 1011.68 1011.64 1011.73 1012.11 1011.90 1012.12 1012.21
1015.57 1015.33 1015.02 1014.72 1014.30 1012.16 1011.83 1011.56 1011.16 1010.45 1008.43 1007.04 1006.59 1006.56 1006.70 1006.93 1007.08 1007.45 1007.65 1007.74 1007.90 1007.90 1007.98 1007.62 1007.60 1007.52 1007.35 1008.06 1008.15 1008.90 1009.21 1009.50 1009.89 1010.21 1009.74 1010.73 1010.65 1009.64 1010.27 1010.35 1010.38 1011.11 1011.30 1011.43 1011.74
1015.02 1014.67 1014.78 1014.09 1012.76 1012.19 1011.81 1011.17 1010.74 1009.50 1008.02 1007.00 1006.36 1006.40 1006.37 1006.65 1006.82 1007.04 1007.26 1007.47 1007.46 1007.57 1007.21 1007.11 1006.91 1007.00 1007.23 1007.83 1008.71 1008.57 1008.46 1008.86 1009.29 1009.59 1009.69 1010.58 1010.28 1009.02 1009.40 1009.86 1010.10 1010.22 1010.45 1010.66 1011.19
1014.46 1013.69 1013.50 1013.05 1012.57 1012.27 1011.50 1010.85 1009.99 1008.51 1007.59 1006.88 1006.45 1006.45 1006.24 1006.41 1006.59 1006.77 1006.92 1006.97 1007.36 1007.30 1007.04 1006.65 1006.96 1006.79 1006.93 1007.06 1007.49 1008.37 1008.45 1008.23 1008.67 1009.33 1009.72 1010.44 1009.52 1008.82 1009.32 1009.53 1009.86 1010.09 1009.91 1010.03 1010.17
1013.94 1013.15 1012.98 1012.39 1012.42 1012.61 1011.27 1010.13 1008.77 1008.06 1007.35 1006.83 1006.55 1006.26 1006.17 1006.11 1006.21 1006.50 1006.55 1006.49 1006.43 1006.68 1006.60 1006.54 1006.52 1006.88 1006.88 1007.07 1007.48 1008.55 1008.77 1008.83 1008.97 1010.12 1009.70 1009.53 1009.21 1008.73 1009.04 1009.22 1009.26 1009.44 1009.53 1009.52 1009.89
1014.55 1013.57 1012.37 1012.18 1012.22 1011.84 1010.97 1009.43 1008.62 1008.02 1007.33 1006.96 1006.48 1006.26 1005.88 1005.91 1006.18 1006.33 1006.32 1005.90 1005.93 1006.29 1006.53 1006.60 1006.65 1006.95 1007.30 1007.26 1007.99 1007.88 1008.63 1008.89 1008.79 1008.98 1008.94 1009.02 1008.91 1008.34 1008.51 1008.72 1008.98 1008.98 1009.32 1009.81 1010.07
1014.43 1013.34 1012.46 1012.30 1012.18 1011.38 1010.32 1009.45 1008.56 1007.80 1007.45 1006.90 1006.56 1006.38 1006.17 1005.93 1005.90 1005.93 1005.71 1005.75 1005.79 1006.40 1006.55 1006.76 1006.58 1007.13 1007.29 1007.43 1007.67 1008.49 1008.42 1009.04 1009.02 1009.18 1008.62 1008.55 1008.23 1008.26 1008.48 1008.95 1009.12 1009.34 1009.64 1009.99 1010.28
1014.76 1013.50 1012.43 1012.32 1011.94 1011.66 1010.39 1009.46 1008.55 1007.64 1007.40 1007.00 1006.75 1006.48 1006.33 1006.05 1005.90 1005.81 1005.38 1005.32 1005.51 1005.89 1006.31 1006.93 1006.73 1006.85 1007.50 1007.92 1008.18 1008.04 1008.09 1008.15 1007.97 1009.13 1009.29 1008.72 1008.06 1008.23 1008.74 1009.16 1009.57 1009.71 1009.93 1010.28 1010.65
1015.34 1013.97 1012.22 1011.97 1011.69 1011.27 1010.57 1009.49 1008.61 1007.77 1007.32 1007.05 1006.74 1006.52 1006.37 1006.03 1006.21 1005.84 1005.56 1005.55 1005.79 1005.84 1005.87 1006.57 1007.12 1007.19 1007.64 1007.85 1008.08 1007.97 1008.38 1008.50 1008.46 1008.45 1008.47 1008.06 1007.78 1008.43 1008.94 1009.28 1009.69 1009.97 1010.25 1010.59 1010.64
1015.49 1014.18 1012.64 1012.10 1012.10 1011.54 1010.84 1009.72 1008.74 1007.91 1007.43 1007.16 1006.82 1006.68 1006.54 1006.25 1006.24 1005.84 1005.80 1005.90 1006.07 1006.31 1006.33 1006.36 1007.17 1007.00 1007.19 1007.52 1007.91 1008.00 1008.35 1008.51 1008.04 1007.78 1007.84 1007.64 1007.55 1007.99 1008.69 1009.31 1009.95 1010.24 1010.57 1010.71 1010.75
1015.68 1014.29 1013.98 1012.77 1012.26 1011.98 1011.45 1010.43 1009.30 1008.31 1007.86 1007.52 1007.13 1006.86 1006.59 1006.38 1006.24 1006.05 1005.88 1006.24 1006.43 1006.74 1006.96 1006.80 1007.14 1007.83 1008.07 1008.25 1008.21 1008.13 1008.16 1008.32 1008.04 1007.97 1007.74 1007.33 1007.80 1007.57 1008.55 1009.22 1010.02 1010.49 1010.78 1010.93 1010.93
1015.83 1014.84 1014.38 1013.52 1012.74 1012.22 1011.48 1010.53 1009.86 1009.16 1008.61 1007.72 1007.50 1007.28 1007.09 1006.83 1006.01 1005.69 1005.36 1005.68 1005.75 1006.78 1007.05 1007.55 1008.10 1008.39 1008.57 1008.73 1008.69 1008.38 1008.22 1008.09 1008.17 1008.23 1008.18 1008.07 1007.94 1008.34 1009.22 1009.94 1010.28 1010.59 1010.77 1010.87 1010.87
1016.06 1015.61 1014.91 1013.75 1012.97 1012.22 1011.54 1010.78 1010.46 1010.03 1008.88 1008.47 1008.27 1007.92 1007.28 1006.92 1006.63 1006.04 1005.72 1005.63 1005.74 1005.84 1006.91 1007.56 1008.17 1008.68 1008.74 1009.06 1008.95 1008.57 1007.99 1008.01 1007.95 1008.14 1008.01 1007.86 1007.95 1008.69 1009.33 1009.92 1010.26 1010.60 1010.78 1010.86 1010.89
Wind_Speed
13 13 13 13 13 13 12 11 11 10 11 10 10 10 9 10 11 2 5 2 3 8 5 6 3 3 1 2 1 1 3 2 4 6 4 2 3 2 4 2 4 6 4 9 15
15 15 15 15 15 14 13 12 11 11 11 10 8 8 8 8 2 5 5 5 4 7 5 6 4 3 2 2 2 2 2 2 2 5 6 7 2 1 2 7 4 7 10 16 14
15 15 15 16 15 15 14 13 12 11 10 9 7 7 7 6 2 0 6 8 6 5 2 3 7 2 2 1 1 2 3 4 5 10 7 6 0 1 2 10 3 9 14 14 14
16 16 15 15 15 14 14 14 13 12 10 8 7 7 7 3 4 0 10 9 7 3 3 4 3 1 1 2 2 3 5 5 9 9 7 4 1 3 4 2 4 14 14 13 12
15 15 16 17 16 16 16 14 13 12 9 7 6 6 2 2 3 1 10 8 5 3 1 2 2 1 2 2 5 7 6 9 11 8 7 3 3 6 7 2 8 15 14 12 10
17 17 18 17 18 18 17 15 14 11 8 5 4 5 3 3 3 8 11 6 3 3 3 2 2 1 5 4 4 6 12 13 6 9 5 4 2 2 3 7 12 14 14 11 10
16 16 17 17 18 19 19 18 15 11 7 4 2 2 2 3 5 9 10 5 4 3 3 2 1 2 4 8 8 13 10 6 6 6 4 6 3 5 3 6 12 13 11 11 9
17 18 18 18 19 19 20 18 15 8 5 4 3 2 2 3 8 7 4 4 2 2 1 1 1 5 2 11 6 4 4 3 6 5 3 6 3 6 2 9 11 12 11 10 11
16 18 18 18 18 18 18 16 4 6 5 6 2 2 2 5 4 5 5 3 6 4 2 1 1 3 6 7 6 3 2 3 5 5 4 7 1 6 6 6 9 11 12 11 9
18 18 18 18 18 15 15 6 7 7 4 3 3 3 2 1 4 6 3 4 2 5 5 2 3 3 3 5 2 3 3 2 3 8 6 6 3 6 10 9 11 13 13 11 11
19 20 20 19 18 15 2 2 2 2 3 3 1 2 3 1 2 4 5 6 3 3 3 3 4 7 7 7 2 3 2 1 1 6 6 7 4 9 10 13 10 8 15 14 14
19 20 21 22 20 8 2 2 5 3 7 3 6 5 5 2 4 3 6 3 2 5 3 4 6 7 2 7 8 6 4 0 4 6 3 4 6 8 7 14 13 10 12 14 12
20 20 22 22 20 2 3 3 3 1 3 3 4 4 4 7 5 9 8 4 3 5 6 7 0 3 8 5 8 8 4 4 2 5 2 2 3 5 7 8 10 7 8 10 13
19 19 20 28 2 4 2 4 6 5 2 2 3 4 5 4 3 2 5 3 3 7 5 5 3 6 8 11 9 10 6 9 9 4 1 2 2 4 10 12 10 15 13 16 14
19 18 14 8 7 3 3 6 1 4 2 3 3 5 3 4 8 6 2 3 3 6 5 2 7 9 9 6 10 1 9 9 7 2 3 2 4 5 4 11 17 16 19 17 16
20 16 14 2 2 5 6 5 3 2 5 3 5 6 6 2 3 4 3 1 1 3 4 6 2 5 3 4 9 13 11 7 3 2 4 3 4 2 5 4 7 15 19 18 17
23 19 9 2 2 5 6 3 2 5 2 5 4 5 6 4 4 5 8 8 5 4 4 2 2 1 9 11 5 4 6 3 3 3 4 2 4 4 3 3 5 7 16 20 19
25 21 4 4 3 6 2 3 6 2 5 1 1 4 6 9 4 6 8 7 5 3 2 3 6 4 4 2 5 6 3 3 5 4 0 1 4 2 3 2 3 6 11 14 20
22 3 2 2 3 3 3 6 7 6 1 2 1 5 5 5 3 6 7 6 5 12 4 5 2 2 3 3 3 6 6 3 6 2 3 1 3 6 4 7 8 3 2 8 15
6 4 3 5 5 2 3 5 5 4 2 2 4 3 7 7 9 9 8 4 6 9 1 2 4 2 4 4 11 3 8 5 2 4 4 2 4 4 4 4 7 9 3 3 7
2 4 7 3 2 1 6 6 5 6 4 3 3 2 3 3 6 7 10 3 5 7 5 5 2 4 5 1 5 5 5 4 4 3 3 3 2 5 6 2 3 4 5 3 3
4 2 2 3 1 1 3 4 1 3 3 3 2 4 4 2 5 7 12 4 8 11 9 1 3 2 3 1 1 1 2 5 6 6 1 3 2 3 5 5 3 2 3 3 5
4 4 1 2 2 2 2 4 3 4 4 3 4 6 3 1 2 5 7 1 7 8 10 9 1 5 4 5 4 1 3 2 5 3 7 6 2 4 6 7 5 4 1 4 5
2 3 1 2 1 1 3 2 3 2 3 3 2 3 3 3 4 4 3 2 2 2 7 6 4 4 5 1 1 4 3 4 4 5 6 7 3 6 9 9 6 4 3 3 5
2 1 1 2 2 3 2 2 3 1 1 2 2 6 5 5 3 6 4 4 4 6 4 1 4 2 3 3 3 2 3 6 6 1 7 3 8 10 1 5 7 2 3 1 2
3 2 0 3 3 2 2 3 4 2 2 3 3 2 2 5 7 8 9 5 6 3 3 2 4 3 4 2 1 3 4 4 5 3 10 5 9 4 4 8 8 6 7 6 3
1 1 2 1 1 2 2 1 2 5 4 6 3 5 7 9 12 13 9 1 2 10 6 5 8 6 5 1 1 6 9 9 6 4 4 8 2 4 6 7 5 5 5 5 3
Wind_Direction
0 355 352 347 342 339 337 334 328 326 325 321 322 325 332 330 313 218 247 236 145 143 160 146 139 120 10 73 82 103 104 137 153 164 146 67 2 275 341 133 56 350 140 133 144
356 355 349 345 340 336 333 331 329 328 326 321 320 321 323 338 300 240 257 195 165 154 142 162 147 145 88 36 52 25 62 85 86 151 151 132 156 76 341 154 87 81 103 127 145
352 351 346 342 337 333 330 329 329 328 328 321 320 310 315 317 210 15 183 194 183 178 154 135 133 186 99 117 88 85 55 115 127 115 111 118 212 122 241 180 178 161 146 148 155
350 348 344 337 333 330 326 325 327 327 327 318 311 310 309 243 111 84 166 171 156 176 141 135 143 184 57 76 103 93 54 121 134 129 130 87 270 204 179 23 177 153 155 155 166
350 344 338 332 328 324 321 322 322 323 319 310 308 313 263 196 72 254 163 146 130 140 174 163 137 127 20 96 103 81 88 105 131 142 140 157 18 182 191 168 134 145 158 162 170
348 342 337 333 326 322 321 320 319 314 309 298 299 306 270 111 111 148 148 149 172 154 165 207 2 136 89 83 38 99 106 114 139 137 147 163 329 303 132 138 144 155 170 170 182
344 337 331 329 325 321 323 323 315 302 287 264 253 265 247 74 138 146 145 182 168 169 167 238 321 223 120 111 111 114 109 122 136 144 129 135 325 297 105 142 159 168 184 179 187
335 333 330 327 325 323 326 321 309 279 231 203 200 229 254 111 137 155 157 116 146 203 283 281 194 112 60 124 121 115 122 158 173 181 128 211 161 147 221 168 181 184 185 197 195
332 329 327 325 321 324 327 320 346 123 142 160 193 303 89 139 191 168 186 151 149 179 228 182 120 80 147 159 150 186 147 165 172 216 166 208 168 168 156 152 196 197 199 208 205
333 329 328 327 324 327 319 290 112 122 125 197 244 214 200 93 146 128 190 155 150 136 145 144 79 143 164 207 51 116 132 184 204 181 204 200 194 177 187 197 201 202 207 212 217
334 331 329 330 327 332 292 185 245 160 190 237 72 308 296 120 179 129 164 152 133 95 155 55 200 204 212 217 84 68 93 90 155 155 188 214 221 197 194 210 197 204 211 213 224
332 331 330 330 328 327 250 68 99 48 307 243 245 259 268 281 157 129 164 144 118 146 165 182 232 229 189 224 236 283 318 60 106 152 219 176 235 205 200 209 204 179 210 217 235
330 331 331 329 323 263 333 115 72 195 269 291 195 196 182 179 177 185 178 140 143 160 192 222 232 177 196 215 226 236 245 175 107 154 209 230 227 206 203 228 221 206 193 217 226
328 331 334 326 278 339 274 119 337 203 310 229 203 168 138 176 152 159 174 154 162 194 173 251 183 187 199 229 218 270 161 147 135 183 71 272 350 227 215 230 219 223 214 218 217
326 329 332 336 310 262 61 328 155 221 253 117 140 124 146 197 134 183 182 159 196 183 194 113 180 180 203 216 187 313 165 135 130 154 232 83 279 133 204 236 226 219 223 224 225
322 327 334 149 235 267 320 313 212 263 242 166 144 165 160 128 122 119 172 96 57 199 238 262 267 202 142 77 169 136 110 88 88 338 273 33 306 166 184 217 240 219 227 224 218
320 320 299 238 260 336 312 196 234 230 1 170 187 172 188 175 180 178 175 193 213 196 216 231 184 116 131 101 137 164 173 133 205 220 314 21 246 300 250 226 261 238 227 225 218
321 318 190 229 300 345 237 152 210 252 250 15 97 133 193 169 184 171 166 212 203 190 177 201 162 188 154 182 186 186 257 223 246 235 350 179 242 80 308 294 320 269 247 230 219
319 339 262 269 243 240 192 200 205 206 217 272 115 188 184 201 216 182 193 212 219 191 237 181 118 147 11 114 186 144 208 50 116 108 247 2 270 247 233 258 291 336 224 211 217
329 329 317 341 172 194 180 228 220 225 216 191 231 212 201 175 184 197 181 201 219 188 167 179 139 80 120 120 55 237 126 178 212 195 259 201 282 280 270 265 257 276 351 336 253
319 329 6 88 236 167 204 226 230 234 228 206 191 275 240 167 200 194 197 188 204 153 163 167 257 116 183 37 159 151 170 71 101 319 233 261 257 218 237 193 287 282 300 312 316
328 314 99 278 146 346 202 205 239 223 167 227 214 236 229 154 193 214 211 251 168 156 166 123 106 105 74 26 271 178 145 185 236 182 308 311 267 179 212 190 212 193 251 314 333
338 295 348 249 238 214 285 263 255 217 203 203 228 225 188 205 210 209 207 18 157 173 158 173 139 137 151 173 165 212 122 121 112 147 187 225 229 167 200 203 220 228 244 344 351
299 312 311 66 64 7 346 257 238 227 248 215 249 193 191 229 215 201 180 106 145 112 77 121 121 204 226 140 67 166 158 167 244 206 166 224 242 205 208 209 200 204 161 3 8
248 68 9 341 121 353 269 314 282 215 195 253 196 226 199 221 186 203 155 159 86 144 70 220 140 158 110 120 159 157 177 194 231 193 233 237 225 263 220 197 176 192 181 135 57
295 309 298 283 286 284 183 215 240 283 263 237 225 35 325 241 217 198 166 198 173 152 112 30 121 136 158 170 198 208 247 242 233 218 246 259 270 300 88 126 133 153 176 192 226
153 249 285 346 251 218 212 193 139 342 256 269 13 338 279 277 281 286 263 130 302 162 137 139 142 169 191 186 217 247 226 222 230 217 247 220 257 339 119 132 149 178 199 205 207